Location: Lane
(33.5226°N, 79.8788°W)
Time: 06:39:44
(UTC+00:00)

Vanguard 2 - Pass Details

Date: 06 October 2022
Orbit: 553 x 2933 km, 32.9° (Epoch: 26 November)

Event Time Altitude Azimuth Distance (km) Brightness Sun altitude
Rises 23:52:22 0° 284° (WNW) 6,302 14.0 -12.1°
Reaches altitude 10° 23:56:37 10° 278° (W) 5,491 13.3 -12.9°
Maximum altitude 00:12:03 42° 216° (SW) 3,755 11.2 -16.2°
Drops below altitude 10° 00:26:55 10° 153° (SSE) 5,263 11.4 -19.2°
Sets 00:30:56 0° 146° (SE) 6,023 11.7 -20.1°
